,,,PA_Meas_PMT16A,,PR_Meas_QMR101_102,,RH_Meas_QMH101,,SR_Meas_QMS101,,TA_Meas_QMH101,,GenWind,,GenWind,
date,time,status,PA,status,PR,status,RH,status,SR,status,TA,status,DirAvg,status,SpdAvg,
2012-01-04, 00:00:05,VALID,1001.46,VALID,0,VALID,93.2111,VALID,0,VALID,24.1696,VALID,57,VALID,0.613672,
2012-01-04, 00:01:05,VALID,1001.45,VALID,0,VALID,93.2721,VALID,0,VALID,24.1696,VALID,57,VALID,0.650391,
2012-01-04, 00:02:05,VALID,1001.47,VALID,0,VALID,93.2568,VALID,0,VALID,24.1714,VALID,57,VALID,0.526953,
2012-01-04, 00:03:05,VALID,1001.45,VALID,0,VALID,93.2874,VALID,0,VALID,24.1696,VALID,57,VALID,0.540625,
2012-01-04, 00:04:05,VALID,1001.42,VALID,0,VALID,93.3331,VALID,0,VALID,24.1696,VALID,57,VALID,0.6625,
2012-01-04, 00:05:05,VALID,1001.39,VALID,0,VALID,93.3866,VALID,0,VALID,24.1696,VALID,57,VALID,0.713281,
2012-01-04, 00:06:05,VALID,1001.36,VALID,0,VALID,93.3637,VALID,0,VALID,24.1891,VALID,57,VALID,0.588672,
2012-01-04, 00:07:05,VALID,1001.34,VALID,0,VALID,93.3103,VALID,0,VALID,24.15,VALID,57,VALID,0.574219,
2012-01-04, 00:08:05,VALID,1001.32,VALID,0,VALID,93.234,VALID,0,VALID,24.1519,VALID,57,VALID,0.426172,
2012-01-04, 00:09:05,VALID,1001.28,VALID,0,VALID,93.1348,VALID,0,VALID,24.072,VALID,57,VALID,0.435156,
2012-01-04, 00:10:05,VALID,1001.27,VALID,0,VALID,93.0737,VALID,0,VALID,24.0116,VALID,57,VALID,0.392578,
2012-01-04, 00:11:05,VALID,1001.23,VALID,0,VALID,93.1043,VALID,0,VALID,24.0329,VALID,22,VALID,0.701953,
2012-01-04, 00:12:05,VALID,1001.23,VALID,0,VALID,93.1271,VALID,0.104696,VALID,23.9939,VALID,14,VALID,0.185156,
2012-01-04, 00:13:05,VALID,1001.21,VALID,0,VALID,93.1958,VALID,0.104696,VALID,23.9921,VALID,14,VALID,0.1,
2012-01-04, 00:14:05,VALID,1001.2,VALID,0,VALID,93.2416,VALID,0,VALID,24.0134,VALID,14,VALID,0,
2012-01-04, 00:15:05,VALID,1001.2,VALID,0,VALID,93.2874,VALID,0,VALID,23.9726,VALID,14,VALID,0,
2012-01-04, 00:16:05,VALID,1001.14,VALID,0,VALID,93.3408,VALID,0,VALID,24.0134,VALID,14,VALID,0,
2012-01-04, 00:17:05,VALID,1001.12,VALID,0,VALID,93.3331,VALID,0,VALID,23.9726,VALID,14,VALID,0,
2012-01-04, 00:18:05,VALID,1001.11,VALID,0,VALID,93.2874,VALID,0,VALID,23.9531,VALID,14,VALID,0,
2012-01-04, 00:19:05,VALID,1001.1,VALID,0,VALID,93.1729,VALID,0,VALID,23.914,VALID,14,VALID,0,
2012-01-04, 00:20:05,VALID,1001.06,VALID,0,VALID,93.1195,VALID,0,VALID,23.836,VALID,14,VALID,0,
2012-01-04, 00:21:05,VALID,1001.02,VALID,0,VALID,93.1119,VALID,0,VALID,23.797,VALID,14,VALID,0,
2012-01-04, 00:22:05,VALID,1000.99,VALID,0,VALID,93.1653,VALID,0,VALID,23.797,VALID,14,VALID,0,
2012-01-04, 00:23:05,VALID,1000.97,VALID,0,VALID,93.2568,VALID,0,VALID,23.8573,VALID,14,VALID,0,
2012-01-04, 00:24:05,VALID,1000.98,VALID,0,VALID,93.3713,VALID,0,VALID,23.8573,VALID,14,VALID,0,
2012-01-04, 00:25:05,VALID,1000.95,VALID,0,VALID,93.4705,VALID,0,VALID,23.8963,VALID,14,VALID,0,
2012-01-04, 00:26:05,VALID,1000.97,VALID,0,VALID,93.5239,VALID,0,VALID,23.9159,VALID,14,VALID,0,
2012-01-04, 00:27:05,VALID,1000.97,VALID,0,VALID,93.5391,VALID,0,VALID,23.8945,VALID,14,VALID,0,
2012-01-04, 00:28:05,VALID,1000.99,VALID,0,VALID,93.5239,VALID,0,VALID,23.9159,VALID,14,VALID,0,
2012-01-04, 00:29:05,VALID,1000.97,VALID,0,VALID,93.5315,VALID,0,VALID,23.9159,VALID,14,VALID,0,
2012-01-04, 00:30:05,VALID,1000.91,VALID,0,VALID,93.501,VALID,0,VALID,23.875,VALID,14,VALID,0,
2012-01-04, 00:31:05,VALID,1000.93,VALID,0,VALID,93.5239,VALID,0,VALID,23.8963,VALID,14,VALID,0,
2012-01-04, 00:32:05,VALID,1000.89,VALID,0,VALID,93.5315,VALID,0,VALID,23.9159,VALID,14,VALID,0,
2012-01-04, 00:33:05,VALID,1000.86,VALID,0,VALID,93.5315,VALID,0.104696,VALID,23.8945,VALID,14,VALID,0,
2012-01-04, 00:34:05,VALID,1000.89,VALID,0,VALID,93.5239,VALID,0,VALID,23.8945,VALID,14,VALID,0,
2012-01-04, 00:35:05,VALID,1000.84,VALID,0,VALID,93.5315,VALID,0,VALID,23.8963,VALID,14,VALID,0,
2012-01-04, 00:36:05,VALID,1000.84,VALID,0,VALID,93.501,VALID,0,VALID,23.875,VALID,14,VALID,0.284375,
2012-01-04, 00:37:05,VALID,1000.81,VALID,0,VALID,93.4934,VALID,0,VALID,23.8555,VALID,14,VALID,0.380078,
2012-01-04, 00:38:05,VALID,1000.79,VALID,0,VALID,93.5391,VALID,0,VALID,23.8768,VALID,14,VALID,0.377734,
2012-01-04, 00:39:05,VALID,1000.8,VALID,0,VALID,93.5849,VALID,0,VALID,23.875,VALID,14,VALID,0.319531,
2012-01-04, 00:40:05,VALID,1000.78,VALID,0,VALID,93.646,VALID,0,VALID,23.8945,VALID,14,VALID,0.50625,
2012-01-04, 00:41:05,VALID,1000.73,VALID,0,VALID,93.6917,VALID,0,VALID,23.9336,VALID,14,VALID,0.683203,
2012-01-04, 00:42:05,VALID,1000.71,VALID,0,VALID,93.6536,VALID,0,VALID,23.914,VALID,14,VALID,0.704297,
2012-01-04, 00:43:05,VALID,1000.7,VALID,0,VALID,93.6154,VALID,0.104696,VALID,23.9744,VALID,14,VALID,0.658203,
2012-01-04, 00:44:05,VALID,1000.72,VALID,0,VALID,93.5773,VALID,0,VALID,23.9336,VALID,14,VALID,0.545313,
2012-01-04, 00:45:05,VALID,1000.69,VALID,0,VALID,93.5544,VALID,0,VALID,23.9336,VALID,14,VALID,0.445703,
2012-01-04, 00:46:05,VALID,1000.72,VALID,0,VALID,93.5163,VALID,0,VALID,23.9531,VALID,14,VALID,0.298438,
2012-01-04, 00:47:05,VALID,1000.71,VALID,0,VALID,93.4781,VALID,0,VALID,23.9531,VALID,14,VALID,0,
2012-01-04, 00:48:05,VALID,1000.71,VALID,0,VALID,93.44,VALID,0.104696,VALID,23.9531,VALID,14,VALID,0,
2012-01-04, 00:49:05,VALID,1000.71,VALID,0,VALID,93.3942,VALID,0,VALID,23.9531,VALID,14,VALID,0,
2012-01-04, 00:50:05,VALID,1000.67,VALID,0,VALID,93.3408,VALID,0,VALID,23.9549,VALID,14,VALID,0,
2012-01-04, 00:51:05,VALID,1000.67,VALID,0,VALID,93.3331,VALID,0,VALID,23.9354,VALID,14,VALID,0,
2012-01-04, 00:52:05,VALID,1000.65,VALID,0,VALID,93.3255,VALID,0,VALID,23.9549,VALID,14,VALID,0,
2012-01-04, 00:53:05,VALID,1000.62,VALID,0,VALID,93.356,VALID,0.104696,VALID,23.9531,VALID,14,VALID,0,
2012-01-04, 00:54:05,VALID,1000.63,VALID,0,VALID,93.3789,VALID,0,VALID,23.9549,VALID,14,VALID,0,
2012-01-04, 00:55:05,VALID,1000.6,VALID,0,VALID,93.3789,VALID,0,VALID,23.9549,VALID,14,VALID,0,
2012-01-04, 00:56:05,VALID,1000.61,VALID,0,VALID,93.3789,VALID,0,VALID,23.9549,VALID,14,VALID,0,
2012-01-04, 00:57:05,VALID,1000.57,VALID,0,VALID,93.3713,VALID,0,VALID,23.9567,VALID,14,VALID,0,
2012-01-04, 00:58:05,VALID,1000.59,VALID,0,VALID,93.3484,VALID,0,VALID,23.9567,VALID,14,VALID,0,
2012-01-04, 00:59:05,VALID,1000.57,VALID,0,VALID,93.3408,VALID,0,VALID,23.9567,VALID,14,VALID,0,
2012-01-04, 01:00:05,VALID,1000.54,VALID,0,VALID,93.356,VALID,0,VALID,23.9567,VALID,14,VALID,0,
2012-01-04, 01:01:05,VALID,1000.56,VALID,0,VALID,93.3866,VALID,0,VALID,23.9567,VALID,14,VALID,0,
2012-01-04, 01:02:05,VALID,1000.55,VALID,0,VALID,93.3789,VALID,0,VALID,23.9567,VALID,14,VALID,0,
2012-01-04, 01:03:05,VALID,1000.55,VALID,0,VALID,93.3942,VALID,0,VALID,23.9567,VALID,14,VALID,0,
2012-01-04, 01:04:05,VALID,1000.55,VALID,0,VALID,93.4171,VALID,0,VALID,23.9354,VALID,14,VALID,0,
2012-01-04, 01:05:05,VALID,1000.56,VALID,0,VALID,93.4171,VALID,0,VALID,23.9354,VALID,14,VALID,0,
2012-01-04, 01:06:05,VALID,1000.56,VALID,0,VALID,93.4476,VALID,0,VALID,23.9549,VALID,14,VALID,0,
2012-01-04, 01:07:05,VALID,1000.54,VALID,0,VALID,93.4552,VALID,0,VALID,23.9354,VALID,14,VALID,0,
2012-01-04, 01:08:05,VALID,1000.54,VALID,0,VALID,93.4781,VALID,0,VALID,23.9354,VALID,14,VALID,0,
2012-01-04, 01:09:05,VALID,1000.51,VALID,0,VALID,93.4705,VALID,0,VALID,23.9567,VALID,14,VALID,0,
2012-01-04, 01:10:05,VALID,1000.47,VALID,0,VALID,93.4857,VALID,0,VALID,23.9354,VALID,14,VALID,0,
2012-01-04, 01:11:05,VALID,1000.48,VALID,0,VALID,93.4857,VALID,0,VALID,23.9549,VALID,14,VALID,0,
2012-01-04, 01:12:05,VALID,1000.46,VALID,0,VALID,93.4857,VALID,0,VALID,23.9354,VALID,14,VALID,0,
2012-01-04, 01:13:05,VALID,1000.43,VALID,0,VALID,93.4705,VALID,0,VALID,23.9159,VALID,14,VALID,0,
2012-01-04, 01:14:05,VALID,1000.42,VALID,0,VALID,93.4705,VALID,0,VALID,23.9354,VALID,14,VALID,0,
2012-01-04, 01:15:05,VALID,1000.4,VALID,0,VALID,93.4705,VALID,0,VALID,23.9159,VALID,14,VALID,0,
2012-01-04, 01:16:05,VALID,1000.36,VALID,0,VALID,93.4552,VALID,0,VALID,23.9354,VALID,14,VALID,0,
2012-01-04, 01:17:05,VALID,1000.33,VALID,0,VALID,93.4781,VALID,0,VALID,23.9549,VALID,14,VALID,0,
2012-01-04, 01:18:05,VALID,1000.31,VALID,0,VALID,93.5163,VALID,0,VALID,23.9354,VALID,14,VALID,0,
2012-01-04, 01:19:05,VALID,1000.33,VALID,0,VALID,93.5239,VALID,0,VALID,23.9549,VALID,14,VALID,0,
2012-01-04, 01:20:05,VALID,1000.3,VALID,0,VALID,93.5544,VALID,0,VALID,23.9762,VALID,14,VALID,0,
2012-01-04, 01:21:05,VALID,1000.31,VALID,0,VALID,93.501,VALID,0,VALID,23.9744,VALID,14,VALID,0,
2012-01-04, 01:22:05,VALID,1000.27,VALID,0,VALID,93.5086,VALID,0,VALID,23.9939,VALID,14,VALID,0.369922,
2012-01-04, 01:23:05,VALID,1000.31,VALID,0,VALID,93.501,VALID,0,VALID,23.9921,VALID,14,VALID,0.367578,
2012-01-04, 01:24:05,VALID,1000.28,VALID,0,VALID,93.4934,VALID,0,VALID,24.0329,VALID,14,VALID,0.422266,
2012-01-04, 01:25:05,VALID,1000.24,VALID,0,VALID,93.4628,VALID,0,VALID,24.0329,VALID,14,VALID,0.414844,
2012-01-04, 01:26:05,VALID,1000.25,VALID,0,VALID,93.4476,VALID,0,VALID,24.0525,VALID,14,VALID,0.16875,
2012-01-04, 01:27:05,VALID,1000.23,VALID,0,VALID,93.4094,VALID,0,VALID,24.0329,VALID,14,VALID,0.304297,
2012-01-04, 01:28:05,VALID,1000.21,VALID,0,VALID,93.3942,VALID,0,VALID,24.0329,VALID,14,VALID,0.416406,
2012-01-04, 01:29:05,VALID,1000.19,VALID,0,VALID,93.3866,VALID,0,VALID,24.0329,VALID,14,VALID,0.304688,
2012-01-04, 01:30:05,VALID,1000.2,VALID,0,VALID,93.3789,VALID,0,VALID,24.0329,VALID,14,VALID,0.0898438,
2012-01-04, 01:31:05,VALID,1000.18,VALID,0,VALID,93.3484,VALID,0,VALID,24.0543,VALID,14,VALID,0,
2012-01-04, 01:32:05,VALID,1000.18,VALID,0,VALID,93.3331,VALID,0,VALID,24.0329,VALID,14,VALID,0,
2012-01-04, 01:33:05,VALID,1000.19,VALID,0,VALID,93.3484,VALID,0,VALID,24.0134,VALID,14,VALID,0.274609,
2012-01-04, 01:34:05,VALID,1000.17,VALID,0,VALID,93.3484,VALID,0,VALID,24.0134,VALID,14,VALID,0.408594,
2012-01-04, 01:35:05,VALID,1000.15,VALID,0,VALID,93.3637,VALID,0,VALID,24.0543,VALID,14,VALID,0.514453,
2012-01-04, 01:36:05,VALID,1000.12,VALID,0,VALID,93.3866,VALID,0,VALID,24.0543,VALID,100,VALID,0.6625,
2012-01-04, 01:37:05,VALID,1000.11,VALID,0,VALID,93.4171,VALID,0,VALID,24.0525,VALID,107,VALID,0.672656,
2012-01-04, 01:38:05,VALID,1000.1,VALID,0,VALID,93.3637,VALID,0,VALID,24.0525,VALID,128,VALID,0.954297,
2012-01-04, 01:39:05,VALID,1000.11,VALID,0,VALID,93.3789,VALID,0,VALID,24.0738,VALID,143,VALID,0.840234,
2012-01-04, 01:40:05,VALID,1000.15,VALID,0,VALID,93.356,VALID,0,VALID,24.0506,VALID,143,VALID,0.727344,
2012-01-04, 01:41:05,VALID,1000.13,VALID,0,VALID,93.3484,VALID,0.104696,VALID,24.0506,VALID,143,VALID,0.652344,
2012-01-04, 01:42:05,VALID,1000.13,VALID,0,VALID,93.3179,VALID,0.104696,VALID,24.0506,VALID,143,VALID,0.746094,
2012-01-04, 01:43:05,VALID,1000.16,VALID,0,VALID,93.2874,VALID,0.104696,VALID,24.0506,VALID,143,VALID,0.6375,
2012-01-04, 01:44:05,VALID,1000.16,VALID,0,VALID,93.234,VALID,0,VALID,24.0701,VALID,143,VALID,0.460938,
2012-01-04, 01:45:05,VALID,1000.17,VALID,0,VALID,93.234,VALID,0,VALID,24.0701,VALID,143,VALID,0.692578,
2012-01-04, 01:46:05,VALID,1000.16,VALID,0,VALID,93.2034,VALID,0.104696,VALID,24.0701,VALID,143,VALID,0.536719,
2012-01-04, 01:47:05,VALID,1000.16,VALID,0,VALID,93.15,VALID,0.104696,VALID,24.0897,VALID,143,VALID,0.524219,
2012-01-04, 01:48:05,VALID,1000.17,VALID,0,VALID,93.1271,VALID,0.104696,VALID,24.0701,VALID,143,VALID,0.362109,
2012-01-04, 01:49:05,VALID,1000.2,VALID,0,VALID,93.1271,VALID,0,VALID,24.0897,VALID,143,VALID,0.31875,
2012-01-04, 01:50:05,VALID,1000.17,VALID,0,VALID,93.1119,VALID,0,VALID,24.0701,VALID,143,VALID,0.394141,
2012-01-04, 01:51:05,VALID,1000.19,VALID,0,VALID,93.1424,VALID,0.104696,VALID,24.0701,VALID,143,VALID,0.366797,
2012-01-04, 01:52:05,VALID,1000.17,VALID,0,VALID,93.1271,VALID,0,VALID,24.0915,VALID,143,VALID,0.34375,
2012-01-04, 01:53:05,VALID,1000.15,VALID,0,VALID,93.1729,VALID,0,VALID,24.0506,VALID,143,VALID,0.335938,
2012-01-04, 01:54:05,VALID,1000.14,VALID,0,VALID,93.1958,VALID,0,VALID,24.0701,VALID,143,VALID,0.223438,
2012-01-04, 01:55:05,VALID,1000.13,VALID,0,VALID,93.2111,VALID,0,VALID,24.072,VALID,143,VALID,0.129297,
2012-01-04, 01:56:05,VALID,1000.16,VALID,0,VALID,93.1958,VALID,0,VALID,24.0506,VALID,143,VALID,0.148438,
2012-01-04, 01:57:05,VALID,1000.13,VALID,0,VALID,93.1729,VALID,0,VALID,24.0311,VALID,143,VALID,0.251953,
2012-01-04, 01:58:05,VALID,1000.11,VALID,0,VALID,93.2034,VALID,0,VALID,24.0116,VALID,143,VALID,0.34375,
2012-01-04, 01:59:05,VALID,1000.11,VALID,0,VALID,93.1805,VALID,0,VALID,24.0116,VALID,118,VALID,0.614844,
2012-01-04, 02:00:05,VALID,1000.11,VALID,0,VALID,93.2187,VALID,0,VALID,24.0116,VALID,108,VALID,0.603125,
2012-01-04, 02:01:05,VALID,1000.09,VALID,0,VALID,93.1958,VALID,0,VALID,23.9921,VALID,53,VALID,0.762109,
2012-01-04, 02:02:05,VALID,1000.1,VALID,0,VALID,93.1958,VALID,0,VALID,23.9921,VALID,25,VALID,1.025,
2012-01-04, 02:03:05,VALID,1000.06,VALID,0,VALID,93.1958,VALID,0,VALID,23.9726,VALID,359,VALID,0.923828,
2012-01-04, 02:04:05,VALID,1000.05,VALID,0,VALID,93.2111,VALID,0,VALID,23.9531,VALID,359,VALID,0.816016,
2012-01-04, 02:05:05,VALID,1000.02,VALID,0,VALID,93.1958,VALID,0,VALID,23.9531,VALID,359,VALID,0.347266,
2012-01-04, 02:06:05,VALID,999.998,VALID,0,VALID,93.1805,VALID,0,VALID,23.9336,VALID,359,VALID,0.467969,
2012-01-04, 02:07:04,VALID,1000.01,VALID,0,VALID,93.15,VALID,0,VALID,23.9336,VALID,359,VALID,0.217969,
2012-01-04, 02:08:04,VALID,999.997,VALID,0,VALID,93.1348,VALID,0,VALID,23.9159,VALID,359,VALID,0,
2012-01-04, 02:09:04,VALID,999.994,VALID,0,VALID,93.089,VALID,0,VALID,23.8945,VALID,359,VALID,0.00195313,
2012-01-04, 02:10:04,VALID,999.969,VALID,0,VALID,93.1043,VALID,0.104696,VALID,23.8945,VALID,359,VALID,0,
2012-01-04, 02:11:04,VALID,999.958,VALID,0,VALID,93.0966,VALID,0,VALID,23.8963,VALID,359,VALID,0,
2012-01-04, 02:12:04,VALID,999.957,VALID,0,VALID,93.15,VALID,0,VALID,23.8555,VALID,359,VALID,0,
2012-01-04, 02:13:04,VALID,999.95,VALID,0,VALID,93.1271,VALID,0,VALID,23.8768,VALID,359,VALID,0,
2012-01-04, 02:14:04,VALID,999.957,VALID,0,VALID,93.1348,VALID,0,VALID,23.836,VALID,359,VALID,0,
2012-01-04, 02:15:04,VALID,999.966,VALID,0,VALID,93.1805,VALID,0,VALID,23.8573,VALID,359,VALID,0,
2012-01-04, 02:16:04,VALID,999.963,VALID,0,VALID,93.2034,VALID,0,VALID,23.8573,VALID,359,VALID,0,
2012-01-04, 02:17:04,VALID,999.949,VALID,0,VALID,93.2187,VALID,0,VALID,23.8555,VALID,359,VALID,0,
2012-01-04, 02:18:04,VALID,999.967,VALID,0,VALID,93.295,VALID,0,VALID,23.8768,VALID,359,VALID,0.146094,
2012-01-04, 02:19:04,VALID,999.97,VALID,0,VALID,93.295,VALID,0.104696,VALID,23.8768,VALID,359,VALID,0,
2012-01-04, 02:20:04,VALID,1000,VALID,0,VALID,93.3026,VALID,0,VALID,23.8768,VALID,359,VALID,0,
2012-01-04, 02:21:04,VALID,999.953,VALID,0,VALID,93.3103,VALID,0,VALID,23.8768,VALID,359,VALID,0,
2012-01-04, 02:22:04,VALID,999.987,VALID,0,VALID,93.295,VALID,0.104696,VALID,23.8555,VALID,359,VALID,0,
2012-01-04, 02:23:04,VALID,1000,VALID,0,VALID,93.3103,VALID,0,VALID,23.875,VALID,359,VALID,0,
2012-01-04, 02:24:04,VALID,999.982,VALID,0,VALID,93.295,VALID,0.104696,VALID,23.8555,VALID,359,VALID,0,
2012-01-04, 02:25:04,VALID,999.975,VALID,0,VALID,93.3179,VALID,0,VALID,23.8573,VALID,359,VALID,0.130469,
2012-01-04, 02:26:04,VALID,999.983,VALID,0,VALID,93.295,VALID,0,VALID,23.8591,VALID,359,VALID,0.466016,
2012-01-04, 02:27:04,VALID,999.983,VALID,0,VALID,93.295,VALID,0,VALID,23.8768,VALID,359,VALID,0.433203,
2012-01-04, 02:28:04,VALID,999.984,VALID,0,VALID,93.2797,VALID,0,VALID,23.8573,VALID,359,VALID,0.398828,
2012-01-04, 02:29:04,VALID,999.96,VALID,0,VALID,93.2797,VALID,0,VALID,23.8768,VALID,359,VALID,0.443359,
2012-01-04, 02:30:04,VALID,999.954,VALID,0,VALID,93.2568,VALID,0,VALID,23.8963,VALID,359,VALID,0.557813,
2012-01-04, 02:31:04,VALID,999.932,VALID,0,VALID,93.2263,VALID,0,VALID,23.8963,VALID,359,VALID,0.599609,
2012-01-04, 02:32:04,VALID,999.912,VALID,0,VALID,93.1958,VALID,0,VALID,23.8963,VALID,359,VALID,0.45,
2012-01-04, 02:33:04,VALID,999.912,VALID,0,VALID,93.1729,VALID,0,VALID,23.9177,VALID,359,VALID,0.446875,
2012-01-04, 02:34:04,VALID,999.895,VALID,0,VALID,93.1653,VALID,0,VALID,23.9177,VALID,359,VALID,0.592188,
2012-01-04, 02:35:04,VALID,999.886,VALID,0,VALID,93.1805,VALID,0,VALID,23.9177,VALID,31,VALID,0.665625,
2012-01-04, 02:36:04,VALID,999.902,VALID,0,VALID,93.1805,VALID,0,VALID,23.8963,VALID,48,VALID,0.421875,
2012-01-04, 02:37:04,VALID,999.901,VALID,0,VALID,93.1958,VALID,0,VALID,23.9159,VALID,48,VALID,0.128906,
2012-01-04, 02:38:04,VALID,999.931,VALID,0,VALID,93.1424,VALID,0,VALID,23.8963,VALID,48,VALID,0,
2012-01-04, 02:39:04,VALID,999.895,VALID,0,VALID,93.1653,VALID,0,VALID,23.8963,VALID,48,VALID,0,
2012-01-04, 02:40:04,VALID,999.896,VALID,0,VALID,93.1577,VALID,0,VALID,23.9159,VALID,48,VALID,0.207031,
2012-01-04, 02:41:04,VALID,999.899,VALID,0,VALID,93.2034,VALID,0,VALID,23.9159,VALID,48,VALID,0.171484,
2012-01-04, 02:42:04,VALID,999.904,VALID,0,VALID,93.1958,VALID,0,VALID,23.8945,VALID,48,VALID,0.180078,
2012-01-04, 02:43:04,VALID,999.894,VALID,0,VALID,93.2187,VALID,0,VALID,23.875,VALID,48,VALID,0.0304688,
2012-01-04, 02:44:04,VALID,999.891,VALID,0,VALID,93.2034,VALID,0,VALID,23.8768,VALID,48,VALID,0,
2012-01-04, 02:45:04,VALID,999.905,VALID,0,VALID,93.2263,VALID,0,VALID,23.8555,VALID,48,VALID,0.000390625,
2012-01-04, 02:46:04,VALID,999.86,VALID,0,VALID,93.2568,VALID,0,VALID,23.8555,VALID,48,VALID,0,
2012-01-04, 02:47:04,VALID,999.846,VALID,0,VALID,93.2797,VALID,0,VALID,23.836,VALID,48,VALID,0.0785156,
2012-01-04, 02:48:04,VALID,999.84,VALID,0,VALID,93.295,VALID,0,VALID,23.8573,VALID,48,VALID,0.469531,
2012-01-04, 02:49:04,VALID,999.828,VALID,0,VALID,93.3484,VALID,0.104696,VALID,23.836,VALID,48,VALID,0.516406,
2012-01-04, 02:50:04,VALID,999.828,VALID,0,VALID,93.356,VALID,0,VALID,23.8573,VALID,48,VALID,0.564453,
2012-01-04, 02:51:04,VALID,999.805,VALID,0,VALID,93.356,VALID,0,VALID,23.8555,VALID,48,VALID,0.575781,
2012-01-04, 02:52:04,VALID,999.796,VALID,0,VALID,93.3408,VALID,0.104696,VALID,23.8555,VALID,48,VALID,0.592969,
2012-01-04, 02:53:04,VALID,999.8,VALID,0,VALID,93.3179,VALID,0,VALID,23.8555,VALID,48,VALID,0.476563,
2012-01-04, 02:54:04,VALID,999.823,VALID,0,VALID,93.3026,VALID,0,VALID,23.8555,VALID,48,VALID,0.444922,
2012-01-04, 02:55:04,VALID,999.838,VALID,0,VALID,93.3179,VALID,0,VALID,23.8786,VALID,105,VALID,0.55,
2012-01-04, 02:56:04,VALID,999.837,VALID,0,VALID,93.3789,VALID,0,VALID,23.8768,VALID,111,VALID,0.464453,
2012-01-04, 02:57:04,VALID,999.832,VALID,0,VALID,93.3637,VALID,0,VALID,23.8963,VALID,111,VALID,0.664844,
2012-01-04, 02:58:04,VALID,999.841,VALID,0,VALID,93.3408,VALID,0,VALID,23.9159,VALID,111,VALID,0.760938,
2012-01-04, 02:59:04,VALID,999.828,VALID,0,VALID,93.3103,VALID,0,VALID,23.9159,VALID,111,VALID,0.626562,
2012-01-04, 03:00:04,VALID,999.839,VALID,0,VALID,93.2721,VALID,0,VALID,23.9354,VALID,111,VALID,0.434766,
2012-01-04, 03:01:04,VALID,999.816,VALID,0,VALID,93.234,VALID,0,VALID,23.9567,VALID,111,VALID,0.597266,
2012-01-04, 03:02:04,VALID,999.826,VALID,0,VALID,93.234,VALID,0,VALID,23.9354,VALID,111,VALID,0.239063,
2012-01-04, 03:03:04,VALID,999.831,VALID,0,VALID,93.1882,VALID,0,VALID,23.9354,VALID,111,VALID,0.477734,
2012-01-04, 03:04:04,VALID,999.837,VALID,0,VALID,93.15,VALID,0,VALID,23.9354,VALID,25,VALID,1.06133,
2012-01-04, 03:05:04,VALID,999.824,VALID,0,VALID,93.1043,VALID,0,VALID,23.9177,VALID,25,VALID,0.945313,
2012-01-04, 03:06:04,VALID,999.843,VALID,0,VALID,93.1195,VALID,0,VALID,23.8786,VALID,25,VALID,0.814453,
2012-01-04, 03:07:04,VALID,999.822,VALID,0,VALID,93.1577,VALID,0,VALID,23.8378,VALID,25,VALID,0.718359,
2012-01-04, 03:08:04,VALID,999.84,VALID,0,VALID,93.2034,VALID,0,VALID,23.8396,VALID,25,VALID,0.711719,
2012-01-04, 03:09:04,VALID,999.869,VALID,0,VALID,93.1805,VALID,0,VALID,23.8201,VALID,25,VALID,0.784375,
2012-01-04, 03:10:04,VALID,999.833,VALID,0,VALID,93.1958,VALID,0,VALID,23.797,VALID,25,VALID,1.00391,
2012-01-04, 03:11:04,VALID,999.876,VALID,0,VALID,93.2263,VALID,0,VALID,23.7988,VALID,25,VALID,0.85625,
2012-01-04, 03:12:04,VALID,999.884,VALID,0,VALID,93.2416,VALID,0,VALID,23.7988,VALID,25,VALID,0.827344,
2012-01-04, 03:13:04,VALID,999.908,VALID,0,VALID,93.2645,VALID,0,VALID,23.7579,VALID,25,VALID,0.771484,
2012-01-04, 03:14:04,VALID,999.917,VALID,0,VALID,93.3255,VALID,0,VALID,23.7579,VALID,25,VALID,0.668359,
2012-01-04, 03:15:04,VALID,999.902,VALID,0,VALID,93.356,VALID,0,VALID,23.7579,VALID,25,VALID,0.654297,
2012-01-04, 03:16:04,VALID,999.91,VALID,0,VALID,93.3866,VALID,0,VALID,23.7793,VALID,25,VALID,0.489453,
2012-01-04, 03:17:04,VALID,999.902,VALID,0,VALID,93.4018,VALID,0,VALID,23.7597,VALID,25,VALID,0.485547,
2012-01-04, 03:18:04,VALID,999.902,VALID,0,VALID,93.4476,VALID,0,VALID,23.7579,VALID,25,VALID,0.689844,
2012-01-04, 03:19:04,VALID,999.899,VALID,0,VALID,93.4628,VALID,0,VALID,23.7597,VALID,25,VALID,0.539844,
2012-01-04, 03:20:04,VALID,999.852,VALID,0,VALID,93.4781,VALID,0,VALID,23.7579,VALID,25,VALID,0.373828,
2012-01-04, 03:21:04,VALID,999.855,VALID,0,VALID,93.4934,VALID,0,VALID,23.7793,VALID,25,VALID,0.455078,
2012-01-04, 03:22:04,VALID,999.867,VALID,0,VALID,93.5086,VALID,0,VALID,23.7988,VALID,25,VALID,0.497266,
2012-01-04, 03:23:04,VALID,999.834,VALID,0,VALID,93.5391,VALID,0,VALID,23.7775,VALID,25,VALID,0.476172,
2012-01-04, 03:24:04,VALID,999.86,VALID,0,VALID,93.5544,VALID,0,VALID,23.7775,VALID,25,VALID,0.421875,
2012-01-04, 03:25:04,VALID,999.878,VALID,0,VALID,93.562,VALID,0,VALID,23.7775,VALID,25,VALID,0.622266,
2012-01-04, 03:26:04,VALID,999.86,VALID,0,VALID,93.5544,VALID,0,VALID,23.7775,VALID,25,VALID,0.615234,
2012-01-04, 03:27:04,VALID,999.836,VALID,0,VALID,93.562,VALID,0,VALID,23.8183,VALID,25,VALID,0.540625,
2012-01-04, 03:28:04,VALID,999.822,VALID,0,VALID,93.5468,VALID,0,VALID,23.7775,VALID,25,VALID,0.503125,
2012-01-04, 03:29:04,VALID,999.82,VALID,0,VALID,93.5697,VALID,0,VALID,23.797,VALID,25,VALID,0.462891,
2012-01-04, 03:30:04,VALID,999.783,VALID,0,VALID,93.5468,VALID,0,VALID,23.797,VALID,25,VALID,0.604297,
2012-01-04, 03:31:04,VALID,999.766,VALID,0,VALID,93.562,VALID,0,VALID,23.8183,VALID,25,VALID,0.628125,
2012-01-04, 03:32:04,VALID,999.764,VALID,0,VALID,93.5697,VALID,0,VALID,23.8183,VALID,53,VALID,0.667578,
2012-01-04, 03:33:04,VALID,999.776,VALID,0,VALID,93.5926,VALID,0,VALID,23.8378,VALID,106,VALID,0.800391,
2012-01-04, 03:34:04,VALID,999.767,VALID,0,VALID,93.6002,VALID,0,VALID,23.836,VALID,119,VALID,0.707812,
2012-01-04, 03:35:04,VALID,999.787,VALID,0,VALID,93.5773,VALID,0,VALID,23.836,VALID,119,VALID,0.639844,
2012-01-04, 03:36:04,VALID,999.815,VALID,0,VALID,93.562,VALID,0,VALID,23.836,VALID,119,VALID,0.405469,
2012-01-04, 03:37:04,VALID,999.799,VALID,0,VALID,93.5163,VALID,0,VALID,23.8573,VALID,119,VALID,0.415625,
2012-01-04, 03:38:04,VALID,999.792,VALID,0,VALID,93.5163,VALID,0,VALID,23.8573,VALID,119,VALID,0.558594,
2012-01-04, 03:39:04,VALID,999.792,VALID,0,VALID,93.4781,VALID,0,VALID,23.8555,VALID,118,VALID,0.527344,
2012-01-04, 03:40:04,VALID,999.799,VALID,0,VALID,93.4476,VALID,0,VALID,23.8555,VALID,118,VALID,0.0582031,
2012-01-04, 03:41:04,VALID,999.815,VALID,0,VALID,93.4171,VALID,0,VALID,23.8573,VALID,118,VALID,0,
2012-01-04, 03:42:04,VALID,999.819,VALID,0,VALID,93.3866,VALID,0,VALID,23.8555,VALID,119,VALID,0.201562,
2012-01-04, 03:43:04,VALID,999.825,VALID,0,VALID,93.3637,VALID,0,VALID,23.836,VALID,118,VALID,0.599609,
2012-01-04, 03:44:04,VALID,999.814,VALID,0,VALID,93.3026,VALID,0,VALID,23.8555,VALID,118,VALID,0.275781,
2012-01-04, 03:45:04,VALID,999.79,VALID,0,VALID,93.2874,VALID,0.104696,VALID,23.8555,VALID,118,VALID,0,
2012-01-04, 03:46:04,VALID,999.818,VALID,0,VALID,93.2645,VALID,0,VALID,23.836,VALID,119,VALID,0.00585938,
2012-01-04, 03:47:04,VALID,999.795,VALID,0,VALID,93.2568,VALID,0,VALID,23.836,VALID,119,VALID,0,
2012-01-04, 03:48:04,VALID,999.794,VALID,0,VALID,93.234,VALID,0,VALID,23.8378,VALID,119,VALID,0,
2012-01-04, 03:49:04,VALID,999.792,VALID,0,VALID,93.2187,VALID,0,VALID,23.8165,VALID,119,VALID,0,
2012-01-04, 03:50:04,VALID,999.763,VALID,0,VALID,93.2187,VALID,0,VALID,23.8165,VALID,119,VALID,0.0242187,